Weather History for Brownwood, TX

Change the Weather History Date:

Saturday, December 24, 2011

  Actual Average (KABI) Record (KABI)
Temperature  
Mean Temperature 39 °F 44 °F  
Max Temperature 41 °F 56 °F 89 °F (1955)
Min Temperature 37 °F 33 °F 4 °F (1983)
Degree Days  
Heating Degree Days 26 21  
Month to date heating degree days 465  
Since 1 July heating degree days 898  
Cooling Degree Days 0 0  
Month to date cooling degree days 0  
Year to date cooling degree days 2408  
Moisture  
Dew Point 35 °F    
Average Humidity 87    
Maximum Humidity 93    
Minimum Humidity 70    
Precipitation  
Precipitation 0.04 in 0.04 in 1.36 in (1895)
Month to date precipitation 0.97  
Year to date precipitation 24.56  
Sea Level Pressure  
Sea Level Pressure 30.38 in    
Wind  
Wind Speed 8 mph (NNE)    
Max Wind Speed 12 mph    
Max Gust Speed 17 mph    
Visibility 8 miles    
Events Rain    
T = Trace of Precipitation, MM = Missing Value Source: NWS Daily Summary

Daily Weather History Graph

Daily Weather History Graph

Search for Another Location

Airport:

Trip Planner

Search our weather history database for the weather conditions in past years. The results will help you decide how hot, cold, wet, or windy it might be!

Date:

Astronomy

Dec. 24, 2011 Rise Set
Actual Time 7:33 AM CST 5:37 PM CST
Civil Twilight 7:06 AM CST 6:04 PM CST
Nautical Twilight 6:35 AM CST 6:35 PM CST
Astronomical Twilight 6:05 AM CST 7:04 PM CST
Moon 7:22 AM CST (12/24) 5:51 PM CST (12/24)
Length of Visible Light 10h 58m
Length of Day
10h 04m
New Moon, 0% of the Moon is Illuminated
Dec 24
New Moon
Dec 24
New
Jan 1
First Quarter
Jan 9
Full
Jan 16
Last Quarter

Hourly Weather History & Observations

Time (CST) Temp. Windchill Dew Point Humidity Pressure Visibility Wind Dir Wind Speed Gust Speed Precip Events Conditions
12:15 AM 39.2 °F 32.0 °F 32.0 °F 75% 30.39 in 10.0 mi NNE 11.5 mph - N/A   Overcast
12:35 AM 39.2 °F 35.0 °F 32.0 °F 75% 30.39 in 10.0 mi NNE 5.8 mph - N/A   Overcast
12:55 AM 39.2 °F 35.0 °F 30.2 °F 70% 30.39 in 10.0 mi North 5.8 mph - N/A   Overcast
1:35 AM 39.2 °F 33.6 °F 30.2 °F 70% 30.37 in 10.0 mi North 8.1 mph - N/A   Overcast
1:55 AM 39.2 °F 32.5 °F 30.2 °F 70% 30.37 in 10.0 mi NNE 10.4 mph - N/A   Overcast
2:15 AM 39.2 °F 33.0 °F 32.0 °F 75% 30.37 in 10.0 mi NNE 9.2 mph - N/A   Overcast
2:35 AM 39.2 °F 33.0 °F 32.0 °F 75% 30.36 in 10.0 mi NNE 9.2 mph 16.1 mph N/A   Overcast
3:15 AM 39.2 °F 33.0 °F 32.0 °F 75% 30.36 in 10.0 mi NE 9.2 mph - N/A   Overcast
3:35 AM 39.2 °F 33.6 °F 32.0 °F 75% 30.36 in 10.0 mi NE 8.1 mph - N/A   Overcast
4:15 AM 39.2 °F 35.0 °F 32.0 °F 75% 30.37 in 7.0 mi NNE 5.8 mph - N/A Rain Light Rain
4:35 AM 37.4 °F 32.8 °F 32.0 °F 81% 30.36 in 8.0 mi NNE 5.8 mph - N/A Rain Light Rain
4:55 AM 37.4 °F 33.8 °F 33.8 °F 87% 30.36 in 8.0 mi NNE 4.6 mph - N/A Rain Light Rain
5:15 AM 37.4 °F 32.1 °F 33.8 °F 87% 30.36 in 10.0 mi North 6.9 mph - N/A   Overcast
5:35 AM 37.4 °F 33.8 °F 33.8 °F 87% 30.35 in 9.0 mi North 4.6 mph - N/A Rain Light Rain
6:15 AM 37.4 °F 31.4 °F 33.8 °F 87% 30.37 in 5.0 mi NNE 8.1 mph - N/A Rain Light Rain
6:35 AM 37.4 °F 32.1 °F 33.8 °F 87% 30.39 in 7.0 mi North 6.9 mph - N/A Rain Light Rain
6:55 AM 37.4 °F 32.8 °F 35.6 °F 93% 30.40 in 5.0 mi North 5.8 mph - 0.01 in Rain Light Rain
7:15 AM 37.4 °F 33.8 °F 35.6 °F 93% 30.41 in 4.0 mi North 4.6 mph - N/A Rain Light Rain
7:35 AM 37.4 °F 33.8 °F 35.6 °F 93% 30.40 in 7.0 mi NNE 4.6 mph - 0.01 in Rain Light Rain
7:55 AM 37.4 °F 34.9 °F 35.6 °F 93% 30.41 in 7.0 mi NE 3.5 mph - 0.01 in   Overcast
8:15 AM 37.4 °F 32.8 °F 35.6 °F 93% 30.41 in 7.0 mi North 5.8 mph - N/A   Overcast
8:35 AM 37.4 °F 32.1 °F 35.6 °F 93% 30.42 in 8.0 mi NNE 6.9 mph - N/A   Overcast
9:15 AM 37.4 °F 32.1 °F 35.6 °F 93% 30.42 in 8.0 mi NNE 6.9 mph - N/A   Overcast
9:35 AM 39.2 °F 33.0 °F 35.6 °F 87% 30.43 in 8.0 mi NNE 9.2 mph - N/A   Overcast
9:55 AM 39.2 °F 33.6 °F 35.6 °F 87% 30.43 in 5.0 mi NE 8.1 mph - N/A Rain Light Rain
10:15 AM 39.2 °F 33.6 °F 35.6 °F 87% 30.44 in 8.0 mi NNE 8.1 mph - N/A   Overcast
10:35 AM 39.2 °F 32.5 °F 35.6 °F 87% 30.44 in 8.0 mi NNE 10.4 mph - N/A   Overcast
10:55 AM 39.2 °F 34.2 °F 35.6 °F 87% 30.43 in 9.0 mi NNE 6.9 mph - N/A   Overcast
11:15 AM 39.2 °F 33.0 °F 35.6 °F 87% 30.42 in 7.0 mi NNE 9.2 mph - N/A Rain Light Rain
11:35 AM 39.2 °F 33.0 °F 37.4 °F 93% 30.41 in 5.0 mi NE 9.2 mph 17.3 mph N/A Rain Light Rain
11:55 AM 39.2 °F 32.0 °F 37.4 °F 93% 30.40 in 9.0 mi NNE 11.5 mph 16.1 mph N/A   Overcast
12:15 PM 39.2 °F 34.2 °F 35.6 °F 87% 30.40 in 10.0 mi NNE 6.9 mph - N/A Rain Light Rain
12:35 PM 41.0 °F 35.8 °F 37.4 °F 87% 30.38 in 8.0 mi NNE 8.1 mph - N/A Rain Light Rain
12:55 PM 41.0 °F 35.2 °F 35.6 °F 81% 30.39 in 7.0 mi NNE 9.2 mph - N/A Rain Light Rain
1:15 PM 39.2 °F 32.5 °F 37.4 °F 93% 30.37 in 8.0 mi NNE 10.4 mph 16.1 mph N/A Rain Light Rain
1:35 PM 39.2 °F 33.6 °F 37.4 °F 93% 30.36 in 8.0 mi North 8.1 mph - N/A Rain Light Rain
1:55 PM 39.2 °F 33.6 °F 37.4 °F 93% 30.35 in 9.0 mi North 8.1 mph - N/A   Overcast
2:15 PM 39.2 °F 33.0 °F 35.6 °F 87% 30.36 in 4.0 mi NNE 9.2 mph - N/A Rain Light Rain
2:35 PM 39.2 °F 32.5 °F 37.4 °F 93% 30.34 in 8.0 mi NNE 10.4 mph - N/A   Overcast
2:55 PM 39.2 °F 33.6 °F 37.4 °F 93% 30.35 in 10.0 mi NNE 8.1 mph - N/A   Overcast
3:15 PM 39.2 °F 35.0 °F 37.4 °F 93% 30.35 in 9.0 mi North 5.8 mph - N/A   Overcast
3:35 PM 39.2 °F 35.0 °F 37.4 °F 93% 30.35 in 10.0 mi NE 5.8 mph - N/A   Overcast
3:55 PM 41.0 °F 36.4 °F 37.4 °F 87% 30.36 in 10.0 mi North 6.9 mph - N/A   Overcast
4:15 PM 39.2 °F 35.0 °F 37.4 °F 93% 30.37 in 8.0 mi North 5.8 mph - N/A   Overcast
4:35 PM 39.2 °F 33.6 °F 35.6 °F 87% 30.36 in 8.0 mi North 8.1 mph - N/A   Overcast
4:55 PM 39.2 °F 34.2 °F 35.6 °F 87% 30.36 in 7.0 mi North 6.9 mph - N/A Rain Light Rain
5:15 PM 39.2 °F 33.6 °F 37.4 °F 93% 30.37 in 5.0 mi North 8.1 mph - N/A Rain Light Rain
5:35 PM 39.2 °F 34.2 °F 35.6 °F 87% 30.37 in 3.0 mi North 6.9 mph - 0.02 in Rain Light Rain
5:55 PM 39.2 °F 34.2 °F 35.6 °F 87% 30.38 in 7.0 mi North 6.9 mph - 0.02 in   Overcast
6:15 PM 39.2 °F 34.2 °F 35.6 °F 87% 30.38 in 8.0 mi North 6.9 mph - N/A   Overcast
6:35 PM 37.4 °F 30.8 °F 35.6 °F 93% 30.38 in 8.0 mi North 9.2 mph - N/A   Overcast
6:55 PM 37.4 °F 31.4 °F 35.6 °F 93% 30.39 in 8.0 mi NNW 8.1 mph - N/A   Overcast
7:15 PM 37.4 °F 30.3 °F 35.6 °F 93% 30.39 in 8.0 mi North 10.4 mph - N/A   Overcast
7:35 PM 37.4 °F 31.4 °F 35.6 °F 93% 30.39 in 8.0 mi North 8.1 mph - N/A   Overcast
8:15 PM 37.4 °F 31.4 °F 35.6 °F 93% 30.41 in 9.0 mi NNW 8.1 mph - N/A   Overcast
8:35 PM 37.4 °F 30.3 °F 35.6 °F 93% 30.41 in 8.0 mi NW 10.4 mph - N/A   Overcast
8:55 PM 37.4 °F 32.8 °F 33.8 °F 87% 30.41 in 10.0 mi NNW 5.8 mph - N/A   Overcast
9:15 PM 37.4 °F 33.8 °F 33.8 °F 87% 30.40 in 10.0 mi North 4.6 mph - N/A   Overcast
9:35 PM 37.4 °F 32.1 °F 33.8 °F 87% 30.41 in 10.0 mi NNW 6.9 mph - N/A   Overcast
9:55 PM 37.4 °F 32.8 °F 33.8 °F 87% 30.41 in 10.0 mi North 5.8 mph - N/A   Overcast
10:15 PM 37.4 °F 32.8 °F 33.8 °F 87% 30.42 in 10.0 mi NW 5.8 mph - N/A   Overcast
10:35 PM 37.4 °F 32.1 °F 33.8 °F 87% 30.42 in 10.0 mi NNW 6.9 mph - N/A   Overcast
10:55 PM 37.4 °F 30.8 °F 33.8 °F 87% 30.42 in 10.0 mi NW 9.2 mph - N/A   Overcast
11:15 PM 37.4 °F 31.4 °F 32.0 °F 81% 30.42 in 10.0 mi NNW 8.1 mph - N/A   Overcast
11:35 PM 37.4 °F 32.1 °F 32.0 °F 81% 30.42 in 10.0 mi NNW 6.9 mph - N/A   Overcast
11:55 PM 37.4 °F 32.8 °F 32.0 °F 81% 30.40 in 10.0 mi North 5.8 mph - N/A   Overcast